Torna al catalogo

THORAD DELTA 1 DEB

AttivoLEO
NORAD 8164·DEBRIS·🇺🇸 United States

Lanciato Nov 15, 1974 da Vandenberg Space Force Base

Loading…

Prossimi Passaggi (prossime 24 ore)

TLE

AggiornatoSource: Space-Track

Epoca: Sep 14, 2026, 13:46 UTC

1  8164U 74089AE  26257.57382448 -.00000023  00000-0  15665-3 0  9992
2  8164 101.6477  10.7525 0120995 187.1352 184.9242 12.28975368325595

Traccia THORAD DELTA 1 DEB in tempo reale con AllMySat

Download on the App Store